sat.trackr.live / text

‹ back to catalog

STARLINK-34508

NORAD 64601 · 2025-137H

PAYLOAD ACTIVE UNKNOWN

§ Identity

Operator
Country
US
Launch date
2025-06-25
Launch site
AFETR
Launch vehicle
Mass (kg)
RCS (m²)

Purposes: comms

External: N2YO · Heavens-Above · Gunter

§ Orbital elements

Epoch: 2026-09-20T22:51:50.211936Z

Period
93.85 min
Inclination
53.1588°
Eccentricity
0.0001135
Mean motion
15.34431695 rev/d
Perigee alt
461.8 km
Apogee alt
463.4 km
Semi-major
6,840.7 km
B*
4.5652e-4
RAAN
147.3335°
Arg perigee
88.7074°
Mean anomaly
271.4058°
Rev number
7,064

§ Raw data

STARLINK-345081 64601U 25137H   26263.95266449  .00015094  00000+0  45652-3 0  99922 64601  53.1588 147.3335 0001135  88.7074 271.4058 15.34431695 70644

JSON: /api/v1/satellites/64601 · /tle

For live sub-satellite position, see the globe view (requires WebGL).

§ Visibility from observer

Set your observer location to see the next 7 days of passes ≥ 10°. The values pass through the URL so the page stays shareable.

No JS? Fill the form by hand. The geolocation button needs JavaScript.